Billings, MT

7:57 PM MDT on August 29, 2014 (GMT -0600)
RAWS SODA SPRINGS MT US | Change Station
CLOSE
Current Station
Personal Weather Station
Location: Billings, MT
Elevation: 4020 ft
Nearby Weather Stations

Elev 4020 ft 45.73 °N, 108.40 °W | Updated 36 minutes ago

Partly Cloudy
Partly Cloudy
71 °F
Feels Like 77 °F
N
16
Wind Variable Wind from ESE
Gusts 22.0 mph

Today
High -- | Low -- °F
--% Chance of Precip.
Yesterday
High -- | Low -- °F
Precip. -- in
6:31 AM 7:57 PM
Waxing Crescent, 18% visible
Pressure 29.85 in
Visibility 10.0 miles
Clouds Few 6000 ft
Few 20000 ft
Heat Index 77 °F
Dew Point 52 °F
Humidity 52%
Rainfall 0.02 in
Snow Depth Not available.
UV 0 out of 12
Pollen 6.90 out of 12
Air Quality Not available.
Flu Activity Not available.
METAR KBIL 300153Z 10008KT 10SM FEW060 FEW200 22/12 A2992 RMK AO2 SLP108 CB DSNT SW T02220122

More Conditions Fewer Conditions

Pressure 29.85 in
Visibility 10.0 miles
Clouds Few 6000 ft
Few 20000 ft
Heat Index 77 °F
Dew Point 52 °F
Humidity 52%
Rainfall 0.02 in
Snow Depth Not available.
UV 0 out of 12
Pollen 6.90 out of 12
Air Quality Not available.
Flu Activity Not available.
METAR KBIL 300153Z 10008KT 10SM FEW060 FEW200 22/12 A2992 RMK AO2 SLP108 CB DSNT SW T02220122

More Conditions Fewer Conditions

10-Day Weather Forecast

Almanac

Astronomy

Aug. 29, 2014 Rise Set
Actual Time 6:31 AM MDT 7:57 PM MDT
Civil Twilight 6:00 AM MDT 8:28 PM MDT
Nautical Twilight 5:22 AM MDT 9:05 PM MDT
Astronomical Twilight 4:42 AM MDT 9:45 PM MDT
Moon 10:38 AM MDT (8/29) 9:41 PM MDT (8/29)
Length of Visible Light 14h 28m
Length of Day
13h 26m
Tomorrow will be 3m 4s shorter.
Waxing Crescent, 18% of the Moon is Illuminated
Today
Waxing Crescent
Sep 2
First Quarter
Sep 8
Full
Sep 15
Last Quarter
Sep 24
New

Today's Extremes

State Highs State Lows

Community

WunderPhotos

Upload Photos

1,748,403 photos uploaded!

Nearby

Snow Depth

Station Depth Elevation
Cole Creek 0 in 7850 ft
Crystal Lake 0 in 6050 ft
White Mill 1 in 8700 ft
Northeast Entrance 0 in 7350 ft
Porcupine 0 in 6500 ft

Earthquake Activity

City Distance Mag. Time & Date
No recent earthquake activity has been reported nearby.
Minimum magnitude displayed is 2.5.

Coastal Water Temperatures

Place Temperature
No Stations Reporting

Nearby Weather Stations